Regional Weather Roundup
Issued by NWS

Home | Current Version | Previous Version | Text Only | Print | Product List | Glossary Off
Versions: 1 2 3 4 5 6 7 8 9 10 11 12 13 14 15 16 17 18 19 20 21 22 23 24 25 26 27 28 29 30 31 32 33 34 35 36 37 38 39 40 41 42 43 44 45 46 47 48 49 50

000
ASUS43 KLOT 170908
RWRIL

ILLINOIS REGIONAL WEATHER ROUNDUP
NATIONAL WEATHER SERVICE CHICAGO/ROMEOVILLE IL
400 AM CDT THU AUG 17 2017

NOTE: "FAIR" INDICATES FEW OR NO CLOUDS BELOW 12,000 FEET WITH NO
SIGNIFICANT WEATHER AND/OR OBSTRUCTIONS TO VISIBILITY.

* THESE STATIONS ARE NOT UNDER NWS QUALITY CONTROL. THEY ALSO MAY NOT
  REPORT WEATHER SUCH AS PRECIPITATION OR FOG.

ILZ001-002-007-009-015-016-024-171000-
NORTHWEST ILLINOIS

CITY           SKY/WX    TMP DP  RH WIND       PRES   REMARKS
MOLINE         NOT AVBL
SAVANNA*       MOCLDY    73  70  89 S9        29.74S
$$

ILZ003-004-008-010-011-017-018-171000-
NORTH CENTRAL ILLINOIS

CITY           SKY/WX    TMP DP  RH WIND       PRES   REMARKS
ROCKFORD       CLOUDY    73  69  87 S12       29.76S
FREEPORT*      LGT RAIN  70  69  97 S10       29.76S
ROCHELLE*      LGT RAIN  70  69  97 S7        29.78S
DE KALB*       CLOUDY    70  69  96 S16       29.79R
PERU*          CLOUDY    70  67  92 S12       29.78F
$$

ILZ005-006-012>014-019>023-171000-
NORTHEAST ILLINOIS

CITY           SKY/WX    TMP DP  RH WIND       PRES   REMARKS
CHICAGO-OHARE  NOT AVBL
CHICAGO-MIDWAY NOT AVBL
AURORA         NOT AVBL
LANSING*       PTCLDY    72  68  87 S9        29.81F
JOLIET*        CLOUDY    75  72  90 S7        29.79F
WAUKEGAN       NOT AVBL
DUPAGE AIRPORT NOT AVBL
KANKAKEE*      PTCLDY    72  70  94 S6        29.83S
WHEELING       NOT AVBL
MORRIS*        CLOUDY    73  69  89 S10       29.78F
ROMEOVILLE*    CLOUDY    73  68  84 S9        29.79F
NORTHERLY ISL    N/A     75  68  78 S10         N/A
$$

LMZ740>746-171000-
SOUTHERN LAKE MICHIGAN

STATION/POSITION SKY/WX   TEMP    WIND        PRES    VSBY  WAVE
                          AIR SEA DIR/SP/G                  HT/PER
                          (F)     (DEG/KT/KT) (MB)    (MI)  (FT/S)
SOUTHERN BUOY              74 71  180/ 14/ 16 1007.7F         2/ 4
WILMETTE HARBOR            76 73  200/ 12/ 16   N/A           2/ 3
HARRISON CRIB              76     200/ 18/ 20   N/A
CALUMET HARBOR             75     190/  8/ 11 1008.4S
BURNS HARBOR               75     190/ 11/ 16 1009.8R
MICHIGAN CITY              75     170/  9/ 12   N/A
MICHIGAN CITY 6N           76 74  200/ 10/ 12   N/A           1/ 3
ST. JOSEPH                 75 74  190/ 10/ 12 1009.0          1/ 3
$$

ILZ025>027-034>036-040-047-049-050-058-095>099-171000-
WEST-CENTRAL ILLINOIS

CITY           SKY/WX    TMP DP  RH WIND       PRES   REMARKS
QUINCY         CLOUDY    70  68  93 SW12      29.81S
GALESBURG*     CLOUDY    70  67  92 SW9       29.78F
MACOMB*        CLOUDY    70  69  95 SW8       29.80F
JACKSONVILLE*  LGT RAIN  69  68  96 CALM      29.81F
PITTSFIELD*    CLOUDY    70  69  94 SW7       29.84S
$$

ILZ028>032-037-038-041>044-048-051>054-059>061-171000-
CENTRAL ILLINOIS

CITY           SKY/WX    TMP DP  RH WIND       PRES   REMARKS
PONTIAC        CLOUDY    72  72  99 CALM      29.82F
DECATUR        CLOUDY    71  68  90 S9        29.82F
PEORIA         NOT AVBL
LACON*         CLOUDY    72  69  91 SW6       29.78F
LINCOLN*       LGT RAIN  72  71  97 W3        29.83R
SPRINGFIELD    CLOUDY    72  70  93 W8        29.83R
TAYLORVILLE    DRIZZLE   71  71  98 S10G23    29.80F
$$

ILZ033-039-045-046-055>057-062-063-171000-
EAST-CENTRAL ILLINOIS

CITY           SKY/WX    TMP DP  RH WIND       PRES   REMARKS
RANTOUL*       CLOUDY    71  70  97 S7        29.85R
MATTOON        CLOUDY    71  71 100 S7        29.84F
PARIS*         CLOUDY    70  70  99 S7        29.86F
$$

ILZ079-100>102-171000-
SOUTHWEST ILLINOIS

CITY           SKY/WX    TMP DP  RH WIND       PRES   REMARKS
ALTON          DRIZZLE   69  69 100 SE7       29.79F
BELLEVILLE     LGT RAIN  70  69  95 S8        29.83F
CAHOKIA*       CLOUDY    72  68  87 SE9       29.78F
SPARTA*        CLOUDY    70  69  97 CALM      29.89F
$$

ILZ064>066-069>071-074>076-080>082-084>086-088>090-092>094-171000-
SOUTH-CENTRAL ILLINOIS

CITY           SKY/WX    TMP DP  RH WIND       PRES   REMARKS
CARBONDALE     MOCLDY    75  75 100 SW10      29.87F
CAIRO*         PTCLDY    76  75  97 S9        29.90S
EFFINGHAM*     CLOUDY    71  71 100 S6        29.88S
MARION         CLEAR     77  75  94 S10       29.89S
CENTRALIA*     CLOUDY    73  72  97 SW5       29.87F
SALEM*         MOCLDY    73  70  89 S6        29.87F
METROPOLIS*    CLEAR     78  75  92 S7        29.91F HX  80
$$

ILZ067-068-072-073-078-083-087-091-171000-
SOUTHEAST ILLINOIS

CITY           SKY/WX    TMP DP  RH WIND       PRES   REMARKS
LAWRENCEVILLE  PTCLDY    73  72  96 S3        29.89S
FLORA*         PTCLDY    72  71  96 S5        29.85F
FAIRFIELD*     PTCLDY    71  71 100 CALM      29.87S
HARRISBURG*    CLEAR     76  75  96 CALM      29.89F
ROBINSON*      CLOUDY    70  70  99 S5        29.89F
CARMI*         CLEAR     73  72  99 CALM      29.89S FOG
$$

ABBREVIATIONS USED IN REMARKS
   TC - TEMPERATURE IN CELSIUS
  WCI - WIND CHILL INDEX
   HX - HEAT INDEX
  VSB - VISIBILITY
$$





USA.gov is the U.S. government's official web portal to all federal, state and local government web resources and services.